Weather History for Fairmont, MN

Change the Weather History Date:

Saturday, August 24, 2013

  Actual Average Record
Temperature  
Mean Temperature 78 °F -  
Max Temperature 84 °F 78 °F 96 °F (1948)
Min Temperature 71 °F 58 °F 48 °F (2008)
Cooling Degree Days 12    
Growing Degree Days 28 (Base 50)    
Moisture  
Dew Point 68 °F    
Average Humidity 73    
Maximum Humidity 83    
Minimum Humidity 62    
Precipitation  
Precipitation 0.00 in - - ()
Sea Level Pressure  
Sea Level Pressure 30.04 in    
Wind  
Wind Speed 14 mph (South)    
Max Wind Speed 22 mph    
Max Gust Speed 30 mph    
Visibility 10 miles    
Events      
Averages and records for this station are not official NWS values.
T = Trace of Precipitation, MM = Missing Value Source: NWS Daily Summary

Daily Weather History Graph

Daily Weather History Graph

Search for Another Location

Airport:

Trip Planner

Search our weather history database for the weather conditions in past years. The results will help you decide how hot, cold, wet, or windy it might be!

Date:

Astronomy

Aug. 24, 2013 Rise Set
Actual Time 6:32 AM CDT 8:06 PM CDT
Civil Twilight 6:02 AM CDT 8:36 PM CDT
Nautical Twilight 5:25 AM CDT 9:12 PM CDT
Astronomical Twilight 4:46 AM CDT 9:51 PM CDT
Moon 9:50 PM CDT (8/24) 10:42 AM CDT (8/24)
Length of Visible Light 14h 33m
Length of Day
13h 33m
Waning Gibbous, 84% of the Moon is Illuminated
Aug 24
Waning Gibbous
Aug 28
Last Quarter
Sep 5
New
Sep 12
First Quarter
Sep 19
Full

Hourly Weather History & Observations

Time (CDT) Temp. Heat Index Dew Point Humidity Pressure Visibility Wind Dir Wind Speed Gust Speed Precip Events Conditions
12:15 AM 73.4 °F - 66.2 °F 78% 30.06 in 10.0 mi SSE 11.5 mph - N/A   Scattered Clouds
12:35 AM 73.4 °F - 66.2 °F 78% 30.06 in 10.0 mi SSE 11.5 mph 18.4 mph N/A   Partly Cloudy
12:55 AM 73.4 °F - 64.4 °F 73% 30.06 in 10.0 mi SSE 13.8 mph - N/A   Clear
1:15 AM 73.4 °F - 64.4 °F 73% 30.06 in 10.0 mi SSE 13.8 mph - N/A   Clear
1:35 AM 73.4 °F - 64.4 °F 73% 30.06 in 10.0 mi SSE 12.7 mph - N/A   Clear
1:55 AM 73.4 °F - 64.4 °F 73% 30.06 in 10.0 mi SSE 13.8 mph - N/A   Clear
2:15 AM 71.6 °F - 64.4 °F 78% 30.06 in 10.0 mi SSE 13.8 mph - N/A   Clear
2:35 AM 71.6 °F - 64.4 °F 78% 30.05 in 10.0 mi SSE 13.8 mph 18.4 mph N/A   Clear
2:55 AM 71.6 °F - 64.4 °F 78% 30.05 in 10.0 mi SSE 11.5 mph - N/A   Clear
3:15 AM 71.6 °F - 64.4 °F 78% 30.06 in 10.0 mi SSE 11.5 mph - N/A   Clear
3:35 AM 71.6 °F - 64.4 °F 78% 30.06 in 10.0 mi SSE 13.8 mph - N/A   Clear
3:55 AM 71.6 °F - 64.4 °F 78% 30.06 in 10.0 mi SSE 12.7 mph - N/A   Clear
4:15 AM 71.6 °F - 64.4 °F 78% 30.07 in 10.0 mi SSE 10.4 mph - N/A   Clear
4:35 AM 71.6 °F - 64.4 °F 78% 30.07 in 10.0 mi SSE 11.5 mph - N/A   Clear
4:55 AM 71.6 °F - 64.4 °F 78% 30.07 in 10.0 mi SSE 10.4 mph - N/A   Clear
5:15 AM 71.6 °F - 64.4 °F 78% 30.07 in 10.0 mi SSE 13.8 mph - N/A   Clear
5:35 AM 71.6 °F - 64.4 °F 78% 30.08 in 10.0 mi SSE 10.4 mph - N/A   Clear
5:55 AM 71.6 °F - 64.4 °F 78% 30.08 in 10.0 mi South 11.5 mph - N/A   Clear
6:15 AM 71.6 °F - 64.4 °F 78% 30.08 in 10.0 mi South 10.4 mph - N/A   Clear
6:35 AM 71.6 °F - 66.2 °F 83% 30.08 in 10.0 mi SSE 11.5 mph - N/A   Partly Cloudy
6:55 AM 71.6 °F - 66.2 °F 83% 30.09 in 10.0 mi South 11.5 mph - N/A   Partly Cloudy
7:15 AM 71.6 °F - 66.2 °F 83% 30.09 in 10.0 mi SSE 13.8 mph 17.3 mph N/A   Mostly Cloudy
7:35 AM 71.6 °F - 66.2 °F 83% 30.10 in 10.0 mi South 12.7 mph - N/A   Mostly Cloudy
7:55 AM 71.6 °F - 66.2 °F 83% 30.10 in 10.0 mi South 11.5 mph - N/A   Mostly Cloudy
8:15 AM 73.4 °F - 66.2 °F 78% 30.10 in 10.0 mi South 12.7 mph - N/A   Partly Cloudy
8:35 AM 73.4 °F - 66.2 °F 78% 30.10 in 10.0 mi South 12.7 mph 16.1 mph N/A   Scattered Clouds
8:55 AM 73.4 °F - 66.2 °F 78% 30.09 in 10.0 mi South 15.0 mph - N/A   Scattered Clouds
9:15 AM 75.2 °F - 66.2 °F 73% 30.09 in 10.0 mi South 13.8 mph - N/A   Partly Cloudy
9:35 AM 77.0 °F - 68.0 °F 74% 30.08 in 10.0 mi South 19.6 mph 24.2 mph N/A   Partly Cloudy
9:55 AM 75.2 °F - 66.2 °F 73% 30.09 in 10.0 mi South 16.1 mph 21.9 mph N/A   Clear
10:15 AM 77.0 °F - 68.0 °F 74% 30.08 in 10.0 mi South 17.3 mph 25.3 mph N/A   Partly Cloudy
10:35 AM 77.0 °F - 68.0 °F 74% 30.08 in 10.0 mi South 12.7 mph 23.0 mph N/A   Partly Cloudy
10:55 AM 77.0 °F - 68.0 °F 74% 30.07 in 10.0 mi South 16.1 mph 23.0 mph N/A   Partly Cloudy
11:15 AM 77.0 °F - 68.0 °F 74% 30.06 in 10.0 mi South 18.4 mph 23.0 mph N/A   Clear
11:35 AM 77.0 °F - 68.0 °F 74% 30.06 in 10.0 mi South 17.3 mph 21.9 mph N/A   Clear
11:55 AM 77.0 °F - 68.0 °F 74% 30.05 in 10.0 mi South 19.6 mph 23.0 mph N/A   Clear
12:15 PM 78.8 °F - 68.0 °F 69% 30.04 in 10.0 mi South 16.1 mph 23.0 mph N/A   Clear
12:35 PM 78.8 °F - 68.0 °F 69% 30.04 in 10.0 mi South 13.8 mph 19.6 mph N/A   Mostly Cloudy
12:55 PM 78.8 °F - 68.0 °F 69% 30.04 in 10.0 mi South 19.6 mph 24.2 mph N/A   Mostly Cloudy
1:15 PM 78.8 °F - 68.0 °F 69% 30.02 in 10.0 mi South 18.4 mph 25.3 mph N/A   Partly Cloudy
1:35 PM 80.6 °F 83.9 °F 69.8 °F 70% 30.03 in 10.0 mi South 18.4 mph 23.0 mph N/A   Clear
1:55 PM 80.6 °F 83.9 °F 69.8 °F 70% 30.03 in 10.0 mi South 18.4 mph 24.2 mph N/A   Clear
2:15 PM 80.6 °F 83.2 °F 68.0 °F 65% 30.03 in 10.0 mi South 18.4 mph 26.5 mph N/A   Clear
2:35 PM 80.6 °F 83.9 °F 69.8 °F 70% 30.03 in 10.0 mi South 21.9 mph 25.3 mph N/A   Clear
2:55 PM 80.6 °F 83.9 °F 69.8 °F 70% 30.02 in 10.0 mi SSE 20.7 mph 27.6 mph N/A   Clear
3:15 PM 82.4 °F 86.3 °F 69.8 °F 66% 30.02 in 10.0 mi South 16.1 mph 24.2 mph N/A   Clear
3:35 PM 82.4 °F 86.3 °F 69.8 °F 66% 30.01 in 10.0 mi South 20.7 mph 27.6 mph N/A   Clear
3:55 PM 82.4 °F 86.3 °F 69.8 °F 66% 30.01 in 10.0 mi South 20.7 mph 26.5 mph N/A   Clear
4:15 PM 82.4 °F 86.3 °F 69.8 °F 66% 30.01 in 10.0 mi South 17.3 mph 28.8 mph N/A   Clear
4:35 PM 82.4 °F 86.3 °F 69.8 °F 66% 30.01 in 10.0 mi SSE 18.4 mph 25.3 mph N/A   Clear
4:55 PM 84.2 °F 89.6 °F 71.6 °F 66% 30.00 in 10.0 mi SSE 15.0 mph 20.7 mph N/A   Clear
5:15 PM 84.2 °F 88.4 °F 69.8 °F 62% 30.00 in 10.0 mi South 19.6 mph 29.9 mph N/A   Clear
5:35 PM 84.2 °F 88.4 °F 69.8 °F 62% 30.00 in 10.0 mi South 18.4 mph - N/A   Clear
5:55 PM 84.2 °F 88.4 °F 69.8 °F 62% 29.99 in 10.0 mi South 18.4 mph 27.6 mph N/A   Clear
6:15 PM 84.2 °F 89.6 °F 71.6 °F 66% 29.99 in 10.0 mi South 17.3 mph 26.5 mph N/A   Clear
6:35 PM 84.2 °F 89.6 °F 71.6 °F 66% 29.99 in 10.0 mi South 16.1 mph - N/A   Clear
6:55 PM 84.2 °F 89.6 °F 71.6 °F 66% 29.99 in 10.0 mi South 17.3 mph 24.2 mph N/A   Clear
7:15 PM 84.2 °F 88.4 °F 69.8 °F 62% 29.98 in 10.0 mi South 18.4 mph - N/A   Clear
7:35 PM 82.4 °F 86.3 °F 69.8 °F 66% 29.99 in 10.0 mi South 17.3 mph 21.9 mph N/A   Clear
7:55 PM 82.4 °F 86.3 °F 69.8 °F 66% 29.99 in 10.0 mi South 15.0 mph 19.6 mph N/A   Clear
8:15 PM 82.4 °F 86.3 °F 69.8 °F 66% 29.99 in 10.0 mi South 12.7 mph - N/A   Clear
8:35 PM 80.6 °F 83.9 °F 69.8 °F 70% 30.00 in 10.0 mi South 13.8 mph - N/A   Clear
8:55 PM 80.6 °F 83.9 °F 69.8 °F 70% 30.00 in 10.0 mi South 12.7 mph - N/A   Clear
9:15 PM 78.8 °F - 69.8 °F 74% 30.01 in 10.0 mi South 13.8 mph - N/A   Clear
9:35 PM 78.8 °F - 69.8 °F 74% 30.01 in 10.0 mi South 12.7 mph - N/A   Clear
9:55 PM 78.8 °F - 69.8 °F 74% 30.02 in 10.0 mi South 12.7 mph - N/A   Clear
10:15 PM 78.8 °F - 69.8 °F 74% 30.02 in 10.0 mi South 11.5 mph - N/A   Clear
10:35 PM 77.0 °F - 69.8 °F 78% 30.02 in 10.0 mi South 11.5 mph - N/A   Clear
10:55 PM 77.0 °F - 68.0 °F 74% 30.02 in 10.0 mi South 12.7 mph - N/A   Clear
11:15 PM 77.0 °F - 68.0 °F 74% 30.02 in 10.0 mi South 11.5 mph - N/A   Clear
11:35 PM 75.2 °F - 68.0 °F 78% 30.02 in 10.0 mi South 12.7 mph - N/A   Clear
11:55 PM 75.2 °F - 68.0 °F 78% 30.03 in 10.0 mi South 11.5 mph - N/A   Clear